Location: The Saddle
(36.8333°N, 80.3417°W)
Time: 16:49:29
(UTC-05:00)

Vanguard 1 Rocket - Visible Passes

Search period start: 30 January 2023 00:00
Search period end: 09 February 2023 00:00
Orbit: 650 x 4225 km, 34.3° (Epoch: 30 January)

Date Brightness Start Highest point End Pass type
(mag) Time Alt. Az. Time Alt. Az. Time Alt. Az.
30 Jan 11.2 19:45:40 10° WNW 20:08:11 47° SW 20:29:55 10° SSE visible
30 Jan 11.6 22:24:44 10° W 22:36:38 15° SW 22:47:22 10° SSW visible
31 Jan 11.1 18:31:37 10° WNW 18:53:24 60° SSW 19:17:49 10° SE visible
31 Jan 11.5 21:04:37 10° W 21:23:35 28° SW 21:40:51 10° S visible
01 Feb 11.4 19:48:32 10° W 20:09:45 40° SW 20:30:58 10° SSE visible
01 Feb 11.9 22:35:28 10° WSW 22:38:06 10° WSW 22:40:40 10° SW visible
02 Feb 11.2 18:34:19 10° W 18:55:12 53° SSW 19:19:15 10° SE visible
02 Feb 11.7 21:08:46 10° W 21:25:01 22° SW 21:40:28 10° S visible
03 Feb 11.6 19:51:41 10° W 20:11:19 33° SW 20:31:35 10° SSE visible
04 Feb 11.4 18:37:09 10° W 18:57:00 46° SW 19:20:23 10° SSE visible
04 Feb 11.9 21:14:19 10° W 21:26:35 16° SW 21:38:37 10° SSW visible
05 Feb 11.8 19:55:19 10° W 20:12:56 27° SW 20:31:35 10° S visible
06 Feb 11.6 18:40:11 10° W 18:58:48 38° SW 19:21:06 10° SSE visible
06 Feb 12.1 21:25:06 10° WSW 21:28:18 10° SW 21:31:30 10° SW visible
07 Feb 12.0 19:59:44 10° W 20:14:40 21° SW 20:30:40 10° S visible
08 Feb 11.9 18:43:34 10° W 19:00:39 31° SW 19:21:19 10° SSE visible
